PTPN

Pohnpei International Airport

Airport
ICAO code
PTPN
IATA Code
PNI
Summary
ICAO Region
APAC
ICAO Territory
Location

Dekehtik, Pohnpei

Serving
Pohnpei Island
Elevation
10 ft
Coordinates
6° 58' 41" N , 158° 12' 25" E
KCC
Metar
Observation
PTPN 262257Z 07015KT 15SM SCT018 BKN130 OVC300 29/24 A2980 RMK LAST
Station
Pohnpei Island, Pohnpei Int. Airp.
Date/Time
2023-01-26 22:57:00
Wind direction
70°
Wind speed
15 kts
Lowest cloud amount
scattered clouds
Temperature
29°C
Dew point
24°C
Humidity
74%
Weather condition
n/a

Pohnpei International Airport is an airport located on Pohnpei Island (formerly Ponape), the main island of Pohnpei State.

Climatology

Tropical rainforest climate (Köppen climate classification Af)

Runways

Designator Length Width Surface Rops
9/27 1829 46 ASP Yes/Yes

Airport map

Aerial View

SKYbrary Partners:

Safety knowledge contributed by: